COSMOS 1275 DEB, 12775

Orbit data source: Space-Track

COSMOS 1275 DEB, 12775 is space debris in LEO originally from a launch on Thu, 04 Jun 1981 UTC launched from the Plesetsk Missile And Space Complex (PKMTR). Debris objects in space refer to the collection of defunct objects orbiting the Earth. Examples of debris include non-operational satellites, rocket bodies, and fragments generated from explosions, collisions, or faulty payload assembly.

Loading next visibility...
Identifier
12775, 1981-053DU
Orbit
LEO
Country
Flag of CISCIS
Related business
Manufacturer
Unknown
Mission
Spacecraft
Bus & Motor
Unknown
Mass
Unknown
Launch date (UTC)
1981-06-04 (45 years ago)
Launch vehicle
Unknown
Launch site
Plesetsk Missile And Space Complex (PKMTR)
Object type
Payload
Rocket body
Debris
Shape & HBR
Unknown shape, 0.1 m
Radar Cross Section
Small (<0.1 m²)

Expand to show TLE details & history
Last TLE update: 11 hours ago

TLE from 11 hours ago
0 COSMOS 1275 DEB
1 12775U 81053DU  26264.13708514  .00000760  00000-0  88011-3 0  9992
2 12775  83.3343 194.9513 0149756 125.6764 299.6499 13.63075718225179
Epoch: 2026-09-21T03:17Z
TLE epoch observation values (Epoch: 2026-09-21T03:17:24.156Z)
Latitude
63.13276°
Longitude
158.846°
Altitude
981.811 km
Speed
7.393 km/s
True Right ascension
13h 52m 52s
True Declination
62° 59' 53"
Sunlit
Object was in daylight at epoch
Visualization orbit readout
Latitude
Unknown
Longitude
Unknown
Altitude
Unknown
Speed
Unknown
Apparent Right ascension
Unknown
Apparent Declination
Unknown
Sunlit
N/A
Visualization observer readout
Local Sidereal Time
07:15:05
Azimuth
Unknown
Elevation
Unknown
Doppler factor
Unknown
Orbital elements
Apogee altitude
1,132.502 km
Perigee altitude
910.868 km
Semi-major axis
7,399.822 km
Eccentricity
0.01498
Inclination
83.3343°
RAAN
194.9513°
Arg. of periapsis
125.6764°
True anomaly
298.14476°
Mean anomaly
299.6499°
Eccentric anomaly
298.89871°
Mean motion
3.40966 °/min
Orbital period
105.58 mins
BSTAR
0.00088011
Loading maneuver chart data...
Computing Atmospheric mass density...

Documentation

Showing up to 5 results
|